Погода в Цимлянске

Погода в Цимлянске : погода сейчас, прогноз погоды и архив. Всё, что Вы хотите узнать о погоде в Цимлянске!

Хотите узнать прогноз погоды в Цимлянске? Тогда Вам сюда: Погода в Цимлянске

Поиск расширенной информации на нашем сайте:

Другие новости

Новости СМИ2

Главная страница сайта

Новости сайта

03.07.2017

Напоминаем, что на нашем специализированном сайте Метеоцентр.Азия вы можете получить высокодетализированные автоматические прогнозы погоды по пунктам России, СНГ и мира в авиационном формате (включающие направление и скорость ветра, видимость, явления погоды, количество и форму облачности, нижнюю и верхнюю границу облачности).

Рекомендуем: Подробности сканер штрих кода у нас.

Погода в Цимлянске - сегодня

Время (UTC), дата Ветер
(°,м/с) 
Видим.   Явления Облачность Т
(°С)
Тd
(°С)
f(%) Тe
(°С)
Pmin
(гПа)
dP
(гПа)
Po
(мм)
O2
(г/м3)
Тmin Tmax R s Состояние
почвы
00 18.08.17 090 (В) 20000 м    4/0 средняя 
[Ac trans]
+24.4 +10.7 42 +26  1017  0.5  757  278           
03 18.08.17 050 (СВ) 20000 м    3/0 средняя, верхняя 
[Ac trans|Ci sp]
+22.8 +13.9 57 +29  1017.9  0.8  758  279  +22.2        сухая 
06 18.08.17 050 (СВ) 20000 м    3/0 верхняя 
[Ci fib]
+25.6 +13.1 46 +31  1018.5  0.7  758  277           
09 18.08.17 050 (СВ) 4{10}  20000 м    3/0 верхняя 
[Ci fib]
+30.7 +12.6 33 +35  1017.8  -0.6  758  272           
12 18.08.17 050 (СВ) 20000 м    4/1 1000 м верхняя 
[Cu hum|Ci fib]
+32.3 +11.5 28 +35  1016.8  -0.9  757  271           
15 18.08.17 050 (СВ) 20000 м    8/0 средняя, верхняя 
[Ac trans|Ci fib]
+29.6 +15.7 43 +39  1016.4  -0.4  757  272    +32.3       
18 18.08.17 040 (СВ) 20000 м    3/0 верхняя 
[Ci fib]
+28.5 +12.2 37 +32  1017  0.6  757  274           
21 18.08.17 050 (СВ) 3{11}  20000 м    ясно 
+25.4 +16.5 58 +36  1018.3  1.2  758  276           
00 19.08.17 050 (СВ) 20000 м    ясно 
+23.9 +14.2 55 +31  1018.3  0.1  758  278           
03 19.08.17 050 (СВ) 20000 м    3/0 средняя, верхняя 
[Ac trans|Ci fib]
+23.3 +15.4 61 +32  1019  0.7  758  278  +22.9        сухая 
06 19.08.17 060 (СВ) 20000 м    10/0 верхняя 
[Ci sp]
+25.2 +14.2 50 +32  1019.8  0.9  759  277           
09 19.08.17 040 (СВ) 20000 м    6/0 верхняя 
[Ci fib]
+29.2 +12.4 36 +33  1019.1  -0.5  759  274           
12 19.08.17 050 (СВ) 20000 м    4/1 1000 м верхняя 
[Cu hum|Ci fib]
+33.3 +8.5 22 +33  1017.5  -1.6  758  271           
15 19.08.17 050 (СВ) 20000 м    8/0 средняя, верхняя 
[Ac trans|Ci fib]
+30.5 +14.1 37 +37  1017.1  -0.5  757  272    +33.4       
18 19.08.17 040 (СВ) 20000 м    6/0 средняя 
[Ac trans]
+28 +15.6 47 +37  1017.9  0.8  758  274           
21 19.08.17 050 (СВ) 20000 м    ясно 
+25.2 +14.6 52 +33  1018.2  0.2  758  277           
00 20.08.17 050 (СВ) 20000 м    ясно 
+23.9 +13.2 51 +29  1018.4  0.1  758  278           
03 20.08.17 070 (В) 20000 м    3/0 средняя 
[Ac trans]
+23.2 +14.3 57 +30  1018.8  0.3  758  279  +22.6        сухая 
06 20.08.17 050 (СВ) 20000 м    4/0 средняя, верхняя 
[Ac trans|Ci fib]
+25.3 +15 53 +34  1018.8  0.1  758  277           
09 20.08.17 050 (СВ) 20000 м    10/0 средняя, верхняя 
[Ac cast|Ci fib]
+28.7 +15.8 46 +38  1018  -0.7  758  273           
12 20.08.17 110 (В) 5-10{10}  20000 м    10/0 средняя, верхняя 
[Ac cast|Ci fib]
+31.6 +11.5 29 +35  1016.7  -1.3  757  271           
15 20.08.17 090 (В) 3{10}  20000 м    10/0 средняя, верхняя 
[Ac cast|Ci fib]
+29.2 +14.8 42 +37  1015.9  -0.8  756  272    +32.1       
18 20.08.17 060 (СВ) 5-10{13}  20000 м    9/5 1000 м средняя 
[Sc|Ac und]
+26.6 +12.6 42 +31  1017.4  1.4  757  276           
21 20.08.17 130 (ЮВ) 3{10}  20000 м    10/0 средняя, верхняя 
[Ac trans|Ci fib]
+26.2 +13.1 44 +32  1018  0.6  758  276           
00 21.08.17 090 (В) 5{10}  20000 м    10/0 средняя 
[Ac und]
+25.1 +12.7 46 +30  1017.7  -0.3  758  277           
Время (UTC), дата Ветер
(°,м/с) 
Видим.   Явления Облачность Т
(°С)
Тd
(°С)
f(%) Тe
(°С)
Pmin
(гПа)
dP
(гПа)
Po
(мм)
O2
(г/м3)
Тmin Tmax R s Состояние
почвы

Для получения пояснительной информации подведите курсор к названию столбца.

ПОГОДА в Цимлянске - архив

Всё, что Вы хотите узнать о погоде в Цимлянске - удобно и подробно!

Выберите нужную дату (начиная с 1 января 2015* года) и нажмите кнопку "Найти".
Будут отображены архивные сводки погоды по пункту Цимлянск, начиная с указанной даты.


Отображать данные в формате CSV (для использования в таблицах Excel)


Внимание! Наш архив погоды предназначен исключительно для личного некоммерческого использования в познавательных целях. Если Вам необходимы официальные справки о состоянии погоды (для производственных, юридических, коммерческих и т.п. целей), обращайтесь в органы Росгидромета.

*Примечание: данная дата относится к архиву по метеостанциям СССР (Россия, СНГ, Балтия).
Архив по метеостанциям Зарубежной Европы и Азии (кроме Китая) хранится 10 дней, по другим регионам земного шара (Китай, Африка, Америка, Австралия, Океания) - 1 день.

Цимлянск - район местоположения метеостанции


Название, широта, долгота, высота метеостанции:
Цимлянск 47.6°ш. 42.1°д. 65 м над ур. моря [Российская Федерация]

Дополнительная информация

В oтличие oт бoльшинства пoгoдных сайтoв мы публикуем пoдрoбную метеoинфoрмацию в детальнoм прoфессиoнальнoм фoрмате.

Характеристики температуры и влажнoсти вoздуха измеряются на высoте 2 м в тени вдали oт зданий и деревьев.
Скoрoсть ветра измеряется на высoте 10 м (на урoвне рoста челoвека скoрoсть ветра ниже в 1.5-2 раза). Если метеoстанция нахoдится в гoрoде или в лесу, тo скoрoсть ветра занижена на 2-4 м/с пo сравнению с oткрытым местoм. Скoрoсть ветра над акватoриями крупных рек и oзёр, а также на вершинах хoлмoв на 2-5 м/с выше, чем в oбычных услoвиях.
Атмoсфернoе давление в разных тoчках местнoсти мoжет значительнo oтличаться oт давления на метеoстанции, в зависимoсти oт услoвий рельефа (при пoдъёме на 10 м давление пoнижается примернo на 1 мм рт.ст.).